�������l�o���
Date,Time,MP-1(��Sv/h),MP-2(��Sv/h),MP-3(��Sv/h),MP-4(��Sv/h),MP-5(��Sv/h),MP-6(��Sv/h),MP-7(��Sv/h),MP-8(��Sv/h),����,����(m/s),���J
2016/10/19,00:00,1.170,1.950,1.357,2.153,1.524,0.606,1.076,0.991,�k,8.0,��
2016/10/19,00:10,1.166,1.950,1.356,2.156,1.521,0.603,1.077,0.990,�k�k��,7.7,��
2016/10/19,00:20,1.167,1.951,1.356,2.155,1.521,0.605,1.076,0.991,�k�k��,6.7,��
2016/10/19,00:30,1.168,1.950,1.354,2.155,1.521,0.605,1.075,0.990,�k�k��,7.2,��
2016/10/19,00:40,1.166,1.953,1.355,2.153,1.520,0.606,1.076,0.990,�k�k��,7.1,��
2016/10/19,00:50,1.168,1.950,1.357,2.156,1.521,0.605,1.076,0.988,�k�k��,6.0,��
2016/10/19,01:00,1.166,1.949,1.352,2.155,1.520,0.605,1.077,0.991,�k�k��,5.6,��
2016/10/19,01:10,1.169,1.947,1.355,2.152,1.520,0.606,1.078,0.990,�k�k��,4.9,��
2016/10/19,01:20,1.170,1.953,1.357,2.156,1.520,0.604,1.075,0.990,�k�k��,6.9,��
2016/10/19,01:30,1.168,1.952,1.355,2.154,1.519,0.604,1.075,0.991,�k�k��,7.5,��
2016/10/19,01:40,1.168,1.950,1.358,2.155,1.519,0.604,1.076,0.992,�k�k��,6.7,��
2016/10/19,01:50,1.166,1.954,1.355,2.156,1.517,0.605,1.077,0.990,�k��,6.3,��
2016/10/19,02:00,1.166,1.951,1.353,2.154,1.519,0.605,1.076,0.990,�k��,5.6,��
2016/10/19,02:10,1.165,1.952,1.355,2.155,1.519,0.606,1.075,0.990,�k��,7.1,��
2016/10/19,02:20,1.170,1.949,1.355,2.157,1.518,0.604,1.077,0.990,�k�k��,7.1,��
2016/10/19,02:30,1.167,1.951,1.353,2.157,1.516,0.605,1.076,0.990,�k�k��,7.2,��
2016/10/19,02:40,1.167,1.951,1.355,2.155,1.519,0.604,1.078,0.990,�k�k��,8.2,��
2016/10/19,02:50,1.166,1.950,1.355,2.156,1.521,0.605,1.077,0.989,�k�k��,7.1,��
2016/10/19,03:00,1.167,1.952,1.356,2.156,1.520,0.606,1.075,0.989,�k�k��,7.1,��
2016/10/19,03:10,1.168,1.951,1.358,2.153,1.520,0.602,1.074,0.990,�k�k��,6.9,��
2016/10/19,03:20,1.167,1.949,1.355,2.155,1.519,0.605,1.076,0.989,�k�k��,6.9,��
2016/10/19,03:30,1.167,1.950,1.356,2.155,1.518,0.604,1.077,0.991,�k�k��,6.4,��
2016/10/19,03:40,1.165,1.956,1.355,2.157,1.516,0.604,1.077,0.989,�k�k��,6.6,��
2016/10/19,03:50,1.168,1.947,1.354,2.158,1.520,0.604,1.077,0.990,�k�k��,7.7,��
2016/10/19,04:00,1.166,1.949,1.353,2.158,1.520,0.604,1.077,0.991,�k�k��,7.4,��
2016/10/19,04:10,1.164,1.949,1.354,2.156,1.518,0.604,1.076,0.991,�k�k��,7.2,��
2016/10/19,04:20,1.166,1.950,1.353,2.157,1.519,0.604,1.076,0.989,�k�k��,6.6,��
2016/10/19,04:30,1.165,1.946,1.355,2.157,1.519,0.604,1.075,0.989,�k�k��,5.8,��
2016/10/19,04:40,1.167,1.949,1.353,2.156,1.518,0.604,1.078,0.989,�k�k��,5.5,��
2016/10/19,04:50,1.166,1.946,1.356,2.156,1.518,0.603,1.077,0.991,�k�k��,5.6,��
2016/10/19,05:00,1.165,1.948,1.354,2.156,1.517,0.603,1.076,0.990,�k�k��,5.8,��
2016/10/19,05:10,1.167,1.948,1.352,2.157,1.518,0.603,1.075,0.990,�k�k��,5.2,��
2016/10/19,05:20,1.165,1.950,1.353,2.157,1.518,0.602,1.078,0.990,�k�k��,5.5,��
2016/10/19,05:30,1.166,1.947,1.353,2.156,1.518,0.604,1.075,0.990,�k�k��,5.5,��
2016/10/19,05:40,1.163,1.947,1.353,2.155,1.516,0.604,1.075,0.992,�k�k��,5.2,��
2016/10/19,05:50,1.163,1.950,1.353,2.155,1.519,0.604,1.075,0.992,�k�k��,5.6,��
2016/10/19,06:00,1.165,1.949,1.354,2.154,1.518,0.603,1.076,0.989,�k�k��,6.6,��
2016/10/19,06:10,1.165,1.948,1.355,2.155,1.516,0.602,1.076,0.991,�k�k��,5.8,��
2016/10/19,06:20,1.169,1.949,1.352,2.153,1.518,0.604,1.077,0.988,�k�k��,5.6,��
2016/10/19,06:30,1.164,1.948,1.353,2.154,1.518,0.605,1.077,0.991,�k�k��,5.6,��
2016/10/19,06:40,1.166,1.947,1.355,2.156,1.517,0.604,1.074,0.989,�k�k��,5.6,��
2016/10/19,06:50,1.164,1.946,1.351,2.156,1.518,0.602,1.074,0.990,�k�k��,5.6,��
2016/10/19,07:00,1.165,1.949,1.351,2.154,1.519,0.604,1.075,0.990,�k�k��,5.8,��
2016/10/19,07:10,1.166,1.950,1.356,2.157,1.520,0.604,1.078,0.991,�k�k��,5.5,��
2016/10/19,07:20,1.166,1.948,1.356,2.154,1.519,0.605,1.074,0.991,�k�k��,4.9,��
2016/10/19,07:30,1.164,1.950,1.354,2.157,1.519,0.603,1.076,0.991,�k��,4.5,��
2016/10/19,07:40,1.168,1.948,1.354,2.157,1.519,0.605,1.076,0.992,�k�k��,4.4,��
2016/10/19,07:50,1.166,1.950,1.355,2.155,1.519,0.603,1.075,0.992,�k��,5.0,��
2016/10/19,08:00,1.166,1.944,1.347,2.157,1.519,0.604,1.075,0.991,�k�k��,4.2,��
2016/10/19,08:10,1.164,1.945,1.329,2.156,1.518,0.602,1.075,0.991,�k�k��,3.8,��
2016/10/19,08:20,1.162,1.944,1.331,2.161,1.519,0.605,1.075,0.990,�k��,3.8,��
2016/10/19,08:30,1.165,1.946,1.352,2.156,1.516,0.604,1.073,0.992,�k�k��,4.4,��
2016/10/19,08:40,1.162,1.950,1.349,2.155,1.518,0.604,1.075,0.991,�k�k��,4.4,��
2016/10/19,08:50,1.162,1.950,1.350,2.158,1.517,0.603,1.075,0.992,�k�k��,3.5,��
2016/10/19,09:00,1.162,1.953,1.352,2.160,1.519,0.604,1.076,0.993,�k,3.8,��
2016/10/19,09:10,1.162,1.945,1.351,2.162,1.514,0.605,1.076,0.992,�k,3.3,��
2016/10/19,09:20,1.163,1.948,1.352,2.162,1.516,0.605,1.077,0.993,�k�k��,3.9,��
2016/10/19,09:30,1.163,1.950,1.352,2.162,1.518,0.602,1.077,0.992,�k,3.6,��
2016/10/19,09:40,1.165,1.948,1.353,2.161,1.519,0.602,1.077,0.990,�k,4.7,��
2016/10/19,09:50,1.166,1.939,1.354,2.161,1.519,0.602,1.078,0.991,�k,3.6,��
2016/10/19,10:00,1.161,1.948,1.354,2.159,1.518,0.602,1.077,0.991,�k,4.1,��
2016/10/19,10:10,1.161,1.952,1.352,2.164,1.523,0.603,1.075,0.987,�k�k��,2.6,��
2016/10/19,10:20,1.161,1.954,1.353,2.162,1.522,0.603,1.076,0.987,�k�k��,3.3,��
2016/10/19,10:30,1.160,1.957,1.355,2.165,1.521,0.602,1.080,0.988,�k,3.0,��
2016/10/19,10:40,1.161,1.952,1.358,2.165,1.521,0.603,1.078,0.990,�k,3.4,��
2016/10/19,10:50,1.162,1.953,1.359,2.161,1.524,0.600,1.077,0.990,�k�k��,3.2,��
2016/10/19,11:00,1.163,1.955,1.358,2.164,1.524,0.602,1.077,0.989,�k�k��,2.9,��
2016/10/19,11:10,1.162,1.957,1.356,2.165,1.527,0.603,1.078,0.990,�k�k��,3.4,��
2016/10/19,11:20,1.162,1.955,1.356,2.164,1.527,0.603,1.077,0.988,�k�k��,3.6,��
2016/10/19,11:30,1.162,1.952,1.358,2.165,1.526,0.605,1.076,0.989,�k��,3.6,��
2016/10/19,11:40,1.164,1.955,1.355,2.162,1.527,0.601,1.077,0.991,�k�k��,3.4,��
2016/10/19,11:50,1.161,1.953,1.357,2.165,1.529,0.602,1.078,0.990,�k�k��,3.3,��
2016/10/19,12:00,1.166,1.951,1.359,2.165,1.528,0.603,1.078,0.989,�k�k��,4.4,��
2016/10/19,12:10,1.165,1.951,1.355,2.164,1.527,0.604,1.078,0.988,�k�k��,4.1,��
2016/10/19,12:20,1.165,1.953,1.357,2.165,1.528,0.605,1.078,0.991,�k��,4.1,��
2016/10/19,12:30,1.167,1.954,1.358,2.168,1.529,0.607,1.077,0.988,�k��,4.1,��
2016/10/19,12:40,1.166,1.949,1.359,2.167,1.528,0.603,1.076,0.990,�k��,2.9,��
2016/10/19,12:50,1.165,1.947,1.357,2.167,1.528,0.605,1.079,0.990,�k,3.8,��
2016/10/19,13:00,1.164,1.950,1.359,2.167,1.526,0.604,1.077,0.990,���k��,4.1,��
2016/10/19,13:10,1.164,1.950,1.360,2.164,1.530,0.604,1.079,0.990,�k��,4.1,��
2016/10/19,13:20,1.166,1.952,1.363,2.166,1.530,0.603,1.078,0.988,�k��,3.8,��
2016/10/19,13:30,1.166,1.953,1.360,2.164,1.529,0.603,1.078,0.990,�k��,3.5,��
2016/10/19,13:40,1.166,1.951,1.363,2.168,1.529,0.606,1.079,0.991,���k��,3.6,��
2016/10/19,13:50,1.167,1.956,1.363,2.168,1.528,0.604,1.078,0.989,�k��,3.6,��
2016/10/19,14:00,1.166,1.959,1.363,2.165,1.530,0.606,1.078,0.991,�k��,3.3,��
2016/10/19,14:10,1.168,1.959,1.361,2.167,1.531,0.606,1.078,0.990,�k��,3.5,��
2016/10/19,14:20,1.169,1.957,1.362,2.167,1.528,0.606,1.079,0.992,�k��,3.1,��
2016/10/19,14:30,1.167,1.956,1.362,2.168,1.526,0.606,1.078,0.987,���k��,2.7,��
2016/10/19,14:40,1.169,1.957,1.362,2.169,1.528,0.604,1.077,0.989,���k��,2.3,��
2016/10/19,14:50,1.167,1.958,1.362,2.166,1.529,0.605,1.078,0.990,���k��,2.5,��
2016/10/19,15:00,1.163,1.955,1.356,2.164,1.526,0.605,1.077,0.991,���k��,2.7,��
2016/10/19,15:10,1.166,1.959,1.360,2.166,1.528,0.605,1.078,0.990,�k��,2.3,��
2016/10/19,15:20,1.168,1.956,1.358,2.166,1.525,0.606,1.079,0.990,���k��,1.6,��
2016/10/19,15:30,1.168,1.955,1.355,2.167,1.526,0.606,1.077,0.990,���k��,1.5,��
2016/10/19,15:40,1.170,1.961,1.360,2.165,1.526,0.606,1.077,0.990,��,2.2,��
2016/10/19,15:50,1.170,1.958,1.357,2.168,1.529,0.607,1.076,0.991,��,2.0,��
2016/10/19,16:00,1.170,1.960,1.359,2.168,1.529,0.607,1.078,0.989,���쓌,1.8,��
2016/10/19,16:10,1.170,1.960,1.360,2.165,1.531,0.609,1.078,0.989,��,1.8,��
2016/10/19,16:20,1.170,1.961,1.359,2.168,1.530,0.609,1.078,0.993,���쓌,1.8,��
2016/10/19,16:30,1.168,1.961,1.361,2.167,1.531,0.608,1.078,0.992,���쓌,1.8,��
2016/10/19,16:40,1.170,1.963,1.362,2.164,1.532,0.609,1.078,0.992,���쓌,1.9,��
2016/10/19,16:50,1.168,1.961,1.362,2.167,1.533,0.606,1.078,0.993,���쓌,1.9,��
2016/10/19,17:00,1.170,1.964,1.360,2.164,1.532,0.608,1.080,0.993,���쓌,1.0,��
2016/10/19,17:10,1.171,1.963,1.362,2.165,1.530,0.607,1.079,0.991,�쓌,1.4,��
2016/10/19,17:20,1.170,1.963,1.359,2.169,1.530,0.607,1.078,0.992,���쓌,1.7,��
2016/10/19,17:30,1.171,1.960,1.359,2.162,1.529,0.605,1.078,0.993,�쓌,1.1,��
2016/10/19,17:40,1.170,1.962,1.360,2.165,1.529,0.606,1.078,0.992,�쓌,1.1,��
2016/10/19,17:50,1.169,1.961,1.362,2.165,1.528,0.607,1.081,0.991,��쓌,1.4,��
2016/10/19,18:00,1.169,1.960,1.360,2.166,1.530,0.608,1.079,0.992,��,0.9,��
2016/10/19,18:10,1.167,1.959,1.360,2.165,1.529,0.607,1.078,0.992,��쓌,1.3,��
2016/10/19,18:20,1.167,1.961,1.360,2.162,1.530,0.607,1.078,0.991,��쓌,0.7,��
2016/10/19,18:30,1.167,1.964,1.359,2.161,1.531,0.607,1.080,0.993,��,1.5,��
2016/10/19,18:40,1.170,1.958,1.356,2.163,1.531,0.607,1.079,0.990,��,2.0,��
2016/10/19,18:50,1.171,1.960,1.360,2.164,1.528,0.608,1.078,0.991,��,2.5,��
2016/10/19,19:00,1.170,1.958,1.357,2.163,1.530,0.606,1.080,0.992,��,2.6,��
2016/10/19,19:10,1.167,1.962,1.357,2.165,1.530,0.609,1.079,0.991,��,2.3,��
2016/10/19,19:20,1.168,1.959,1.360,2.165,1.528,0.607,1.078,0.991,��,2.2,��
2016/10/19,19:30,1.169,1.961,1.358,2.164,1.529,0.607,1.080,0.992,��,2.0,��
2016/10/19,19:40,1.168,1.959,1.360,2.162,1.527,0.610,1.078,0.992,��쐼,1.4,��
2016/10/19,19:50,1.168,1.958,1.358,2.164,1.529,0.606,1.079,0.989,��,1.7,��
2016/10/19,20:00,1.169,1.958,1.359,2.160,1.530,0.607,1.081,0.991,-,CALM,��
2016/10/19,20:10,1.168,1.959,1.358,2.164,1.529,0.609,1.079,0.993,��,1.7,��
2016/10/19,20:20,1.169,1.960,1.358,2.164,1.524,0.607,1.078,0.991,��쐼,2.2,��
2016/10/19,20:30,1.169,1.960,1.358,2.166,1.525,0.606,1.080,0.992,��,1.7,��
2016/10/19,20:40,1.168,1.961,1.360,2.163,1.529,0.608,1.077,0.992,��쐼,0.6,��
2016/10/19,20:50,1.170,1.960,1.358,2.163,1.528,0.606,1.080,0.992,-,CALM,��
2016/10/19,21:00,1.170,1.961,1.359,2.165,1.529,0.607,1.080,0.990,��,0.7,��
2016/10/19,21:10,1.171,1.962,1.357,2.163,1.526,0.607,1.079,0.991,��쓌,1.5,��
2016/10/19,21:20,1.169,1.957,1.361,2.162,1.528,0.606,1.078,0.992,��쓌,1.0,��
2016/10/19,21:30,1.170,1.960,1.359,2.164,1.528,0.606,1.080,0.990,-,CALM,��
2016/10/19,21:40,1.171,1.958,1.360,2.163,1.527,0.606,1.079,0.992,��,1.7,��
2016/10/19,21:50,1.171,1.959,1.357,2.166,1.528,0.606,1.076,0.993,��,3.6,��
2016/10/19,22:00,1.172,1.961,1.360,2.163,1.528,0.607,1.079,0.994,��쓌,1.8,��
2016/10/19,22:10,1.168,1.958,1.358,2.162,1.528,0.606,1.077,0.992,��,1.4,��
2016/10/19,22:20,1.170,1.956,1.359,2.164,1.529,0.606,1.080,0.994,-,CALM,��
2016/10/19,22:30,1.170,1.956,1.357,2.163,1.527,0.607,1.079,0.992,-,CALM,��
2016/10/19,22:40,1.169,1.959,1.359,2.163,1.529,0.606,1.078,0.993,��,1.3,��
2016/10/19,22:50,1.169,1.958,1.360,2.164,1.529,0.606,1.078,0.990,��,2.0,��
2016/10/19,23:00,1.170,1.957,1.358,2.162,1.530,0.605,1.078,0.993,��,4.4,��
2016/10/19,23:10,1.171,1.957,1.359,2.163,1.529,0.607,1.080,0.990,��,3.8,��
2016/10/19,23:20,1.169,1.962,1.358,2.165,1.530,0.605,1.078,0.992,��,3.3,��
2016/10/19,23:30,1.170,1.961,1.359,2.163,1.529,0.606,1.080,0.991,��,6.6,��
2016/10/19,23:40,1.170,1.960,1.359,2.160,1.526,0.606,1.077,0.992,��,7.4,��
2016/10/19,23:50,1.167,1.958,1.357,2.162,1.528,0.606,1.080,0.993,��,8.3,��
